Weather in Berezovo

Russia / Saratov Oblast     51°55′24″N   48°28′36″E
temp.,
°C
wind,
m/s
gust,
m/s
humid.,
%
clouds,
%
prec.,
mm/h
press.,
hPa
HPBL,
m
18 april, sun
sun1801:00+12wnw1285100 1.1 101744
04:00+11w4791100 1.5 1016221
07:00+11n2487100 0.6 1016134
10:00+13ne3572100 0.9 1016356
13:00+16n226082 0.1 10161016
16:00+18n445289 0.3 10161392
19:00+15ene2365100 1.1 101672
22:00+13ene71259100 1.4 1016398
19 april, mon
mon1901:00+11ene6116694 0.0 1017323
04:00+9ene7136697 0.1 1017432
07:00+8ene7137495 0.1 1018517
10:00+8ene61176100 0.1 1019527
13:00+10ene71171100 0.0 1019740
16:00+11e7970100 0.0 1019950
19:00+8e81376100 0.1 1020709
22:00+5e81379100 0.2 1022618
20 april, tue
tue2001:00+5e81381100 0.0 1023728
04:00+5e81464100 0.0 1024750
07:00+5e81360100 0.0 1025749
10:00+4e81458100 0.0 1026713
13:00+10ese10114698 0.0 10261221
16:00+11ese101244100 0.0 10241381
19:00+9ese91350100 0.0 10231052
22:00+7ese81549100 0.0 1024803
21 april, wed
wed2101:00+6ese101748100 0.0 1023712
04:00+5se81754100 0.1 1024675
07:00+4se91755100 0.4 1023650
10:00+3se91772100 4.5 1024740
13:00+3se101987100 6.2 1023644
16:00+4se81789100 9.2 1024773
19:00+4sse81590100 1.4 1024740
22:00+4sse71392100 3.0 1025607
22 april, thu
thu2201:00+5sse61193100 0.6 1025490
04:00+5sse51094100 0.7 1026409
07:00+5sse5993100 0.0 1027371
10:00+7sse5790100 0.0 1028436
13:00+10sse5677100 0.0 1028714
16:00+11se6670100 0.0 1027953
19:00+8se5782100 0.0 1028497
22:00+6sse4790100 0.0 1029445